Regional Weather Roundup
Issued by NWS Newport/Morehead, NC

Current Version | Previous Version | Graphics & Text | Print | Product List | Glossary On
Versions: 1 2 3 4 5 6 7 8 9 10 11 12 13 14 15 16 17 18 19 20 21 22 23 24 25 26 27 28 29 30 31 32 33 34 35 36 37 38 39 40 41 42 43 44 45 46 47 48 49 50
000 ASUS42 KMHX 231825 RWRMHX WEATHER ROUNDUP FOR EASTERN NORTH CAROLINA NATIONAL WEATHER SERVICE NEWPORT/MOREHEAD CITY NC 200 PM EDT THU MAR 23 2017 NOTE: "FAIR" INDICATES FEW OR NO CLOUDS BELOW 12,000 FEET WITH NO SIGNIFICANT WEATHER AND/OR OBSTRUCTIONS TO VISIBILITY NCZ015>017-031-032-045>047-102-103-231900- NORTH COAST CITY SKY/WX TMP DP RH WIND PRES REMARKS EDENTON SUNNY 48 22 35 E8 30.61F ELIZABETH CITY SUNNY 43 25 49 VRB7 30.62F KITTY HAWK NOT AVBL MANTEO SUNNY 42 23 48 NE13G18 30.62S $$ NCZ045>047-081-094-103-104-231900- CENTRAL COAST CITY SKY/WX TMP DP RH WIND PRES REMARKS FRISCO SUNNY 47 27 45 NE10G23 30.60S $$ NCZ095-097-098-100-101-231900- SOUTHERN COAST CITY SKY/WX TMP DP RH WIND PRES REMARKS BEAUFORT SUNNY 50 27 40 NE14G20 30.58F CEDAR ISLAND NOT AVBL JACKSONVILLE SUNNY 53 22 29 E12 30.57 PINEY ISLAND CLEAR N/A N/A N/A NE16 30.59F WILMINGTON SUNNY 52 30 43 SE9G16 30.56F $$ NCZ011>013-027>030-043-044-078>080-089-090>093-098-231900- COASTAL PLAIN CITY SKY/WX TMP DP RH WIND PRES REMARKS AHOSKIE NOT AVBL CLINTON SUNNY 52 25 34 NE7 30.57F ELIZABETHTOWN SUNNY 54 24 30 CALM 30.55F GOLDSBORO SUNNY 52 20 29 E7 30.57F GREENVILLE SUNNY 50 19 29 NE7 30.58F HAVELOCK SUNNY 48 29 47 E16 30.61R KENANSVILLE SUNNY 52 21 30 NE7 30.57F KINSTON SUNNY 50 19 29 NE12 30.59F NEW BERN SUNNY 50 24 36 E8 30.59F RICHLANDS SUNNY 52 25 35 NE12 30.57F ROCKY MOUNT SUNNY 49 14 24 MISG 30.59F WASHINGTON SUNNY 49 22 34 NE6 30.59F WHITEVILLE SUNNY 55 24 29 E9 30.54F $$ AMZ130-135-150-152-154-156-158-170-250-252-270-ANZ085-086-088-633-658-670-231900- MARINE OBSERVATIONS STATION/POSITION TIME TEMP WIND PRES WAVE SWELL AIR SEA DIR/SP/G HT/PER HT/PER (UTC) (F) (DEG/KT/KT) (MB) (FT/S) (FT/S) CHESAPEAKE LIGHT NOT AVBL 64 E VA BEACH 1750 38 49 10/ 14/ 17 1036.2 6/ 8 5/ 8 DUCK 1800 37 48 10/ 12/ 15 1036.3 2 E DUCK 1800 47 N/A 5/ 6 2/11 OREGON INLET 1800 40 49 20/ 13/ 16 1036.4 13E OREGON INLT NOT AVBL HATTERAS CG 1800 41 51 20/ 14/ 19 1035.5 DIAMOND BUOY 1750 45 73 30/ 19/ 23 1035.4 9/11 7/11 CAPE LOOKOUT 1800 44 30/ 20/ 25 1035.2 BEAUFORT LAB 1800 46 51 30/ 10/ 16 1034.6 30 SE NEW RVR IN 1808 48 50/ 19/ 27 1034.9 30 SE NEW RVR IN 1813 67 N/A 7/ 6 2/11 27 SE WRIGHTSVLE 1808 49 62 70/ 17/ 23 1034.3 5 SE WRIGHTSVLE 1808 48 57 80/ 14/ 23 1035.2 225 S CAPE HAT 1750 60 72 40/ 21/ 27 1030.0 8/10 7/10 41 SE CHARLESTON 1750 59 71 40/ 23/ 27 1031.0 6/ 7 $$

USA.gov is the U.S. government's official web portal to all federal, state and local government web resources and services.